STARLINK-1288 (45372 NORAD) Tracking and Keplerian Element Data

This shows tracking and keplerian element data for the satellite.

Feedback or suggestion? Click here.




ElementValue
Catalog45372
NameSTARLINK-1288
Epoch Orbit176
Epoch Day193.91667824
Epoch Year2020
RAAN84.7239
Inclination52.9983
Eccentricity0.0001503
Argument of Perigee92.9181
Mean Anonmoly319.0379
Mean Motion15.0559407
Decay Rate-0.00029508
L11 45372U 20019N 20193.91667824 -.00029508 00000-0 -20137-2 0 9992
L22 45372 52.9983 84.7239 0001503 92.9181 319.0379 15.05594070 1763

Live tracking and technical data element details for STARLINK-1288 (NORAD 45372). STARLINK-1288 can be tracked NOW for your location showing map with azimuth and elevation plus other details from your city location.

Track the satellite on the map from your city or location and see movement details for azimuth, elevation, latitude, longitude, range, height, and movement on the map or in text.







IsCatalogInMostPopularTable: catalog: 45372, numindb: 29
Update: records affected: 1



GetName: 45372 STARLINK-1288

Hit Count: updated at: Mon, 13 Jul 2020 05:14:34 GMT